Terminal Aerodrome Forecast
Issued by NWS

Home | Current Version | Previous Version | Graphics & Text | Print | Product List | Glossary On
Versions: 1 2 3 4 5 6 7 8 9 10 11 12 13 14 15
000
FTUS42 KMHX 020537
TAFOAJ
TAF
KOAJ 020537Z 0206/0306 22004KT P6SM BKN200
     FM021700 21012G19KT P6SM VCTS SCT050CB BKN100
     FM030000 19006KT P6SM VCTS BKN050CB
      AMD LTD TO CLD VIS AND WIND=

USA.gov is the U.S. government's official web portal to all federal, state and local government web resources and services.